Tracking 22989 objects as of 8-May-2021
HD Live streaming from Space Station
objects crossing your sky now

THORAD AGENA D DEB

Track THORAD AGENA D DEB now!
10-day predictions


NORAD ID: 4687
Int'l Code: 1970-025BL
Perigee: 1,057.9 km
Apogee: 1,098.1 km
Inclination: 99.5 °
Period: 106.6 minutes
Semi major axis: 7448 km
RCS: 0.2719 m2 (medium)
Launch date: April 8, 1970
Source: United States (US)
Launch site: AIR FORCE WESTERN TEST RANGE (AFWTR)

Note: This is SATELLITE DEBRIS
aabbcc
Your satellite tracking list
Your tracking list is empty




NASA's NSSDC Master Catalog

Two Line Element Set (TLE):
1  4687U 70025BL  21127.85758589  .00000053  00000-0  14875-3 0  9993
2  4687  99.4679 334.8724 0026987 279.0684  94.1894 13.50390205512786
Source of the keplerian elements: AFSPC